Location: ???? ?????????
(31.1304°N, 31.7111°E)
Time: 09:58:01
(UTC+00:00)

Altair - Visible Passes

Search period start: 01 March 2021 00:00
Search period end: 11 March 2021 00:00
Orbit: 1501 x 1682 km, 47.2° (Epoch: 28 February)

Date Brightness Start Highest point End Pass type
(mag) Time Alt. Az. Time Alt. Az. Time Alt. Az.
01 Mar 9.3 00:45:40 17° SSE 00:45:40 17° SSE 00:47:25 10° SE visible
01 Mar 9.1 02:43:45 14° SW 02:43:45 14° SW 02:46:17 10° SSW visible
01 Mar 8.2 17:44:06 10° W 17:52:50 45° NNW 17:59:18 20° NE visible
01 Mar 8.9 19:51:52 10° WNW 19:57:21 26° NNW 19:57:21 26° NNW visible
02 Mar 9.2 02:20:49 12° SSW 02:20:49 12° SSW 02:22:02 10° SSW visible
02 Mar 8.2 17:18:45 10° W 17:27:34 48° NNW 17:35:44 13° NE visible
02 Mar 8.7 19:26:31 10° WNW 19:33:46 29° N 19:33:46 29° N visible
03 Mar 8.1 16:53:27 10° WSW 17:02:18 51° NNW 17:11:26 10° NE visible
03 Mar 8.6 19:01:09 10° WNW 19:09:04 30° N 19:10:08 29° N visible
03 Mar 9.7 21:07:27 10° NW 21:08:09 12° NW 21:08:09 12° NW visible
04 Mar 8.1 16:28:08 10° WSW 16:37:03 54° NNW 16:46:14 10° NE visible
04 Mar 8.7 18:35:47 10° WNW 18:43:41 30° N 18:46:26 26° NNE visible
04 Mar 9.4 20:42:16 10° NW 20:44:28 18° NW 20:44:28 18° NW visible
05 Mar 8.0 16:02:50 10° WSW 16:11:49 58° NNW 16:21:02 10° NE visible
05 Mar 8.7 18:10:23 10° WNW 18:18:19 30° N 18:22:43 22° NNE visible
05 Mar 9.1 20:17:03 10° NW 20:20:44 23° NNW 20:20:44 23° NNW visible
06 Mar 8.7 17:45:00 10° WNW 17:52:57 31° N 17:58:57 17° NE visible
06 Mar 8.8 19:51:50 10° NW 19:56:58 28° NNW 19:56:58 28° NNW visible
07 Mar 8.6 17:19:36 10° WNW 17:27:36 32° NNW 17:35:10 12° NE visible
07 Mar 8.6 19:26:37 10° NW 19:33:12 32° N 19:33:12 32° N visible
08 Mar 8.6 16:54:12 10° WNW 17:02:15 33° NNW 17:10:31 10° NE visible
08 Mar 8.5 19:01:23 10° NW 19:09:24 32° N 19:09:24 32° N visible
08 Mar 9.5 21:06:18 10° NW 21:07:25 14° NW 21:07:25 14° NW visible
09 Mar 8.6 16:28:47 10° WNW 16:36:55 34° NNW 16:45:14 10° NE visible
09 Mar 8.5 18:36:08 10° NW 18:44:12 31° N 18:45:36 30° NNE visible
09 Mar 9.2 20:41:10 10° NW 20:43:36 20° NW 20:43:36 20° NW visible
10 Mar 8.5 18:10:52 10° NW 18:18:50 31° N 18:21:47 26° NE visible
10 Mar 8.9 20:16:01 10° NW 20:19:48 27° NW 20:19:48 27° NW visible
